| time (UTC) | temp C | wind direction | speed KPH | gust KPH | rain 1hr cm | rain 24hr cm | rain mn cm | humidity % | barometer mb |
| 20260831124408 | 11 | 136 | 9.7 | 14.5 | 0.00 | 0.18 | 0.18 | 73 | 1016.6 |
| 20260831123408 | 11 | 154 | 3.2 | 17.7 | 0.03 | 0.18 | 0.18 | 71 | 1016.3 |
| 20260831122407 | 11 | 147 | 6.4 | 16.1 | 0.08 | 0.18 | 0.18 | 65 | 1016.2 |
| 20260831121407 | 12 | 262 | 12.9 | 25.7 | 0.18 | 0.18 | 0.18 | 59 | 1016.1 |
| 20260831120407 | 12 | 291 | 20.9 | 38.6 | 0.18 | 0.18 | 0.18 | 59 | 1015.9 |
| 20260831115408 | 11 | 285 | 29.0 | 40.2 | 0.18 | 0.18 | 0.18 | 62 | 1015.7 |
| 20260831114408 | 11 | 302 | 20.9 | 29.0 | 0.18 | 0.18 | 0.18 | 63 | 1015.5 |
| 20260831113408 | 11 | 292 | 20.9 | 35.4 | 0.15 | 0.15 | 0.15 | 63 | 1015.5 |
| 20260831112407 | 11 | 289 | 29.0 | 38.6 | 0.10 | 0.10 | 0.10 | 66 | 1015.5 |
| 20260831111407 | 12 | 271 | 24.1 | 32.2 | 0.00 | 0.00 | 0.00 | 61 | 1015.7 |
| 20260831110407 | 13 | 305 | 19.3 | 27.4 | 0.00 | 0.00 | 0.00 | 57 | 1015.6 |
| 20260831105409 | 13 | 321 | 12.9 | 20.9 | 0.00 | 0.00 | 0.00 | 62 | 1015.7 |
| 20260831104408 | 13 | 309 | 8.0 | 17.7 | 0.00 | 0.00 | 0.00 | 63 | 1015.8 |
| 20260831103408 | 13 | 342 | 4.8 | 19.3 | 0.00 | 0.00 | 0.00 | 67 | 1015.8 |
| 20260831102408 | 12 | 18 | 1.6 | 17.7 | 0.00 | 0.00 | 0.00 | 68 | 1015.7 |
| 20260831101411 | 12 | 33 | 8.0 | 19.3 | 0.00 | 0.00 | 0.00 | 70 | 1015.6 |
| 20260831100411 | 12 | 32 | 6.4 | 17.7 | 0.00 | 0.00 | 0.00 | 73 | 1015.6 |
| 20260831095407 | 12 | 44 | 9.7 | 22.5 | 0.00 | 0.00 | 0.00 | 74 | 1015.5 |
| 20260831094108 | 13 | 337 | 6.4 | 25.7 | 0.00 | 0.00 | 0.00 | 72 | 1015.5 |
| 20260831093106 | 14 | 271 | 14.5 | 19.3 | 0.00 | 0.00 | 0.00 | 63 | 1015.8 |
| 20260831092106 | 15 | 284 | 9.7 | 20.9 | 0.00 | 0.00 | 0.00 | 58 | 1015.7 |
| 20260831091106 | 15 | 300 | 6.4 | 16.1 | 0.00 | 0.00 | 0.00 | 58 | 1015.7 |
| 20260831090106 | 15 | 301 | 6.4 | 12.9 | 0.00 | 0.00 | 0.00 | 57 | 1015.7 |
| 20260831085106 | 15 | 286 | 4.8 | 11.3 | 0.00 | 0.00 | 0.00 | 56 | 1015.6 |
| 20260831084106 | 16 | 277 | 1.6 | 9.7 | 0.00 | 0.00 | 0.00 | 54 | 1015.8 |
| 20260831083106 | 16 | 233 | 3.2 | 6.4 | 0.00 | 0.00 | 0.00 | 53 | 1015.8 |
| 20260831082106 | 16 | 0 | 0.0 | 0.0 | 0.00 | 0.00 | 0.00 | 55 | 1015.9 |
| 20260831081106 | 16 | 0 | 0.0 | 0.0 | 0.00 | 0.00 | 0.00 | 54 | 1015.9 |
| 20260831080106 | 15 | 0 | 0.0 | 3.2 | 0.00 | 0.00 | 0.00 | 54 | 1016.0 |
| 20260831075106 | 15 | 345 | 3.2 | 11.3 | 0.00 | 0.00 | 0.00 | 58 | 1015.9 |
| 20260831074106 | 15 | 328 | 3.2 | 12.9 | 0.00 | 0.00 | 0.00 | 58 | 1015.9 |
| 20260831073106 | 15 | 319 | 6.4 | 12.9 | 0.00 | 0.00 | 0.00 | 56 | 1016.1 |
| 20260831072109 | 16 | 328 | 3.2 | 8.0 | 0.00 | 0.00 | 0.00 | 53 | 1016.2 |
| 20260831071106 | 16 | 311 | 4.8 | 11.3 | 0.00 | 0.00 | 0.00 | 52 | 1016.3 |
| 20260831070106 | 16 | 0 | 0.0 | 0.0 | 0.00 | 0.00 | 0.00 | 51 | 1016.3 |
| 20260831065109 | 16 | 0 | 0.0 | 4.8 | 0.00 | 0.03 | 0.00 | 52 | 1016.4 |
| 20260831064106 | 15 | 0 | 0.0 | 9.7 | 0.00 | 0.05 | 0.00 | 55 | 1016.3 |
| 20260831063106 | 15 | 327 | 1.6 | 17.7 | 0.00 | 0.13 | 0.00 | 57 | 1016.3 |
| 20260831062106 | 15 | 332 | 4.8 | 12.9 | 0.00 | 0.13 | 0.00 | 59 | 1016.2 |
| 20260831061106 | 15 | 316 | 3.2 | 9.7 | 0.00 | 0.15 | 0.00 | 59 | 1016.2 |
| 20260831060106 | 15 | 0 | 0.0 | 16.1 | 0.00 | 0.20 | 0.00 | 60 | 1016.0 |
| 20260831055106 | 14 | 325 | 8.0 | 20.9 | 0.00 | 0.25 | 0.00 | 62 | 1016.1 |
| 20260831054109 | 14 | 315 | 12.9 | 27.4 | 0.00 | 0.28 | 0.00 | 63 | 1016.2 |
| 20260831053108 | 15 | 309 | 16.1 | 27.4 | 0.00 | 0.33 | 0.00 | 63 | 1016.1 |
| 20260831052109 | 16 | 306 | 14.5 | 29.0 | 0.00 | 0.38 | 0.00 | 57 | 1016.1 |
| 20260831051106 | 16 | 302 | 12.9 | 20.9 | 0.00 | 0.46 | 0.00 | 50 | 1016.2 |
| 20260831050109 | 16 | 305 | 12.9 | 20.9 | 0.00 | 0.48 | 0.00 | 51 | 1016.4 |
| 20260831045107 | 16 | 307 | 14.5 | 20.9 | 0.00 | 0.58 | 0.00 | 51 | 1016.4 |
| 20260831044107 | 16 | 303 | 14.5 | 20.9 | 0.00 | 0.94 | 0.00 | 50 | 1016.4 |
| 20260831043106 | 16 | 299 | 11.3 | 20.9 | 0.00 | 0.97 | 0.00 | 50 | 1016.5 |
| 20260831042106 | 16 | 307 | 12.9 | 19.3 | 0.00 | 1.04 | 0.00 | 50 | 1016.5 |
| 20260831041106 | 16 | 305 | 14.5 | 19.3 | 0.00 | 1.50 | 0.00 | 50 | 1016.5 |
| 20260831040108 | 16 | 306 | 12.9 | 17.7 | 0.00 | 2.01 | 0.00 | 50 | 1016.5 |
| 20260831035106 | 16 | 305 | 11.3 | 16.1 | 0.00 | 2.11 | 0.00 | 49 | 1016.5 |
| 20260831034106 | 16 | 315 | 6.4 | 16.1 | 0.00 | 2.18 | 0.00 | 49 | 1016.5 |
| 20260831033106 | 16 | 299 | 9.7 | 14.5 | 0.00 | 2.64 | 0.00 | 49 | 1016.4 |
| 20260831032109 | 16 | 299 | 11.3 | 16.1 | 0.00 | 2.67 | 0.00 | 49 | 1016.3 |
| 20260831031107 | 16 | 306 | 11.3 | 16.1 | 0.00 | 2.67 | 0.00 | 48 | 1016.2 |
| 20260831030106 | 16 | 301 | 11.3 | 16.1 | 0.00 | 2.67 | 0.00 | 48 | 1016.1 |
| 20260831025106 | 16 | 309 | 8.0 | 12.9 | 0.00 | 2.67 | 0.00 | 49 | 1016.1 |
| 20260831024106 | 16 | 306 | 9.7 | 14.5 | 0.00 | 2.67 | 0.00 | 49 | 1015.9 |
| 20260831023106 | 16 | 308 | 8.0 | 14.5 | 0.00 | 2.67 | 0.00 | 47 | 1015.8 |
| 20260831022106 | 16 | 314 | 8.0 | 16.1 | 0.00 | 2.67 | 0.00 | 48 | 1015.5 |
| 20260831021106 | 16 | 306 | 11.3 | 16.1 | 0.00 | 2.67 | 0.00 | 48 | 1015.5 |
| 20260831020106 | 16 | 311 | 8.0 | 12.9 | 0.00 | 2.67 | 0.00 | 49 | 1015.4 |
| 20260831015106 | 17 | 312 | 8.0 | 14.5 | 0.00 | 2.67 | 0.00 | 48 | 1015.4 |
| 20260831014106 | 17 | 310 | 6.4 | 12.9 | 0.00 | 2.67 | 0.00 | 48 | 1015.4 |
| 20260831013106 | 17 | 309 | 8.0 | 16.1 | 0.00 | 2.67 | 0.00 | 47 | 1015.3 |
| 20260831012106 | 17 | 304 | 11.3 | 17.7 | 0.00 | 2.67 | 0.00 | 47 | 1015.2 |
| 20260831011107 | 17 | 288 | 11.3 | 22.5 | 0.00 | 2.67 | 0.00 | 49 | 1015.2 |
| 20260831010109 | 17 | 281 | 11.3 | 24.1 | 0.00 | 2.67 | 0.00 | 49 | 1015.3 |
| 20260831005106 | 18 | 289 | 11.3 | 22.5 | 0.00 | 2.67 | 0.00 | 46 | 1015.3 |
| 20260831004107 | 18 | 285 | 16.1 | 25.7 | 0.00 | 2.67 | 0.00 | 45 | 1015.3 |
| 20260831003106 | 18 | 288 | 11.3 | 27.4 | 0.00 | 2.67 | 0.00 | 46 | 1015.4 |
| 20260831002107 | 18 | 283 | 9.7 | 24.1 | 0.00 | 2.67 | 0.00 | 45 | 1015.3 |
| 20260831001107 | 18 | 282 | 8.0 | 20.9 | 0.00 | 2.67 | 0.00 | 45 | 1015.4 |
| 20260831000106 | 19 | 258 | 11.3 | 19.3 | 0.00 | 2.67 | 0.00 | 44 | 1015.3 |
| 20260830235106 | 19 | 279 | 16.1 | 25.7 | 0.00 | 2.67 | 0.00 | 42 | 1015.3 |
| 20260830234107 | 19 | 280 | 8.0 | 19.3 | 0.00 | 2.67 | 0.00 | 43 | 1015.4 |
| 20260830233106 | 18 | 277 | 11.3 | 24.1 | 0.00 | 2.67 | 0.00 | 43 | 1015.4 |
| 20260830231409 | 18 | 263 | 12.9 | 29.0 | 0.00 | 2.67 | 0.00 | 44 | 1015.6 |
| 20260830230409 | 19 | 260 | 12.9 | 20.9 | 0.00 | 2.67 | 2.74 | 42 | 1015.6 |
| 20260830225409 | 19 | 274 | 11.3 | 20.9 | 0.00 | 2.67 | 2.74 | 40 | 1015.8 |
| 20260830224409 | 19 | 286 | 8.0 | 20.9 | 0.00 | 2.67 | 2.74 | 41 | 1015.8 |
| 20260830223409 | 18 | 275 | 9.7 | 24.1 | 0.00 | 2.67 | 2.74 | 44 | 1016.0 |
| 20260830222410 | 19 | 202 | 3.2 | 19.3 | 0.00 | 2.67 | 2.74 | 42 | 1016.0 |
| 20260830221409 | 20 | 316 | 4.8 | 16.1 | 0.00 | 2.67 | 2.74 | 42 | 1016.1 |
| 20260830220409 | 20 | 315 | 9.7 | 17.7 | 0.00 | 2.67 | 2.74 | 38 | 1016.5 |
| 20260830215409 | 20 | 284 | 9.7 | 17.7 | 0.00 | 2.67 | 2.74 | 38 | 1016.6 |
| 20260830213808 | 19 | 262 | 4.8 | 17.7 | 0.00 | 2.67 | 2.74 | 42 | 1016.7 |
| 20260830212808 | 18 | 233 | 8.0 | 19.3 | 0.00 | 2.67 | 2.74 | 44 | 1016.9 |
| 20260830211808 | 19 | 249 | 9.7 | 20.9 | 0.00 | 2.67 | 2.74 | 44 | 1017.0 |
| 20260830210810 | 18 | 253 | 11.3 | 22.5 | 0.00 | 2.67 | 2.74 | 41 | 1017.1 |
| 20260830205808 | 18 | 249 | 12.9 | 25.7 | 0.00 | 2.67 | 2.74 | 38 | 1017.2 |
| 20260830204808 | 18 | 262 | 11.3 | 19.3 | 0.00 | 2.67 | 2.74 | 43 | 1017.3 |
| 20260830203808 | 19 | 236 | 6.4 | 16.1 | 0.00 | 2.67 | 2.74 | 40 | 1017.4 |
| 20260830202808 | 18 | 251 | 4.8 | 19.3 | 0.00 | 2.67 | 2.74 | 44 | 1017.5 |
| 20260830201808 | 18 | 264 | 8.0 | 16.1 | 0.00 | 2.67 | 2.74 | 49 | 1017.6 |
| 20260830200810 | 18 | 259 | 4.8 | 16.1 | 0.00 | 2.67 | 2.74 | 49 | 1017.6 |
| 20260830195808 | 18 | 266 | 6.4 | 16.1 | 0.00 | 2.67 | 2.74 | 48 | 1017.7 |
| 20260830194809 | 18 | 256 | 3.2 | 14.5 | 0.00 | 2.67 | 2.74 | 46 | 1017.7 |
| 20260830193808 | 18 | 267 | 8.0 | 16.1 | 0.00 | 2.67 | 2.74 | 49 | 1017.8 |
| 20260830192808 | 18 | 255 | 9.7 | 17.7 | 0.00 | 2.67 | 2.74 | 48 | 1017.9 |
| 20260830191808 | 18 | 268 | 4.8 | 16.1 | 0.00 | 2.67 | 2.74 | 49 | 1017.8 |
| 20260830190808 | 17 | 278 | 4.8 | 17.7 | 0.00 | 2.67 | 2.74 | 48 | 1018.0 |
| 20260830185808 | 17 | 293 | 9.7 | 20.9 | 0.00 | 2.67 | 2.74 | 50 | 1018.1 |
| 20260830184809 | 17 | 287 | 12.9 | 24.1 | 0.00 | 2.67 | 2.74 | 52 | 1018.1 |
| 20260830183808 | 16 | 288 | 8.0 | 22.5 | 0.00 | 2.67 | 2.74 | 56 | 1018.2 |
| 20260830182808 | 16 | 257 | 9.7 | 27.4 | 0.00 | 2.67 | 2.74 | 55 | 1018.3 |
| 20260830181808 | 16 | 292 | 8.0 | 24.1 | 0.00 | 2.67 | 2.74 | 54 | 1018.4 |
| 20260830180808 | 16 | 287 | 8.0 | 25.7 | 0.00 | 2.67 | 2.74 | 56 | 1018.5 |
| 20260830175808 | 16 | 273 | 14.5 | 27.4 | 0.00 | 2.67 | 2.74 | 57 | 1018.5 |
| 20260830174808 | 16 | 277 | 19.3 | 27.4 | 0.00 | 2.67 | 2.74 | 57 | 1018.5 |
| 20260830173808 | 16 | 266 | 12.9 | 27.4 | 0.00 | 2.67 | 2.74 | 58 | 1018.5 |
| 20260830172808 | 15 | 263 | 16.1 | 29.0 | 0.00 | 2.67 | 2.74 | 59 | 1018.4 |
| 20260830171808 | 15 | 270 | 17.7 | 29.0 | 0.00 | 2.67 | 2.74 | 62 | 1018.3 |
| 20260830170808 | 15 | 271 | 16.1 | 24.1 | 0.00 | 2.67 | 2.74 | 60 | 1018.3 |
| 20260830165808 | 14 | 273 | 16.1 | 24.1 | 0.00 | 2.67 | 2.74 | 60 | 1018.3 |
| 20260830164808 | 14 | 263 | 12.9 | 22.5 | 0.00 | 2.67 | 2.74 | 59 | 1018.3 |
| 20260830163808 | 14 | 267 | 16.1 | 24.1 | 0.00 | 2.67 | 2.74 | 59 | 1018.3 |
| 20260830162808 | 15 | 264 | 16.1 | 25.7 | 0.00 | 2.67 | 2.74 | 57 | 1018.3 |
| 20260830161808 | 15 | 272 | 14.5 | 22.5 | 0.00 | 2.67 | 2.74 | 57 | 1018.2 |
| 20260830160810 | 14 | 270 | 16.1 | 24.1 | 0.00 | 2.67 | 2.74 | 58 | 1018.1 |
| 20260830155808 | 14 | 267 | 14.5 | 19.3 | 0.00 | 2.67 | 2.74 | 58 | 1018.1 |
| 20260830154808 | 13 | 271 | 12.9 | 20.9 | 0.00 | 2.67 | 2.74 | 58 | 1018.0 |
| 20260830153808 | 13 | 275 | 12.9 | 22.5 | 0.00 | 2.67 | 2.74 | 57 | 1018.0 |
| 20260830152808 | 13 | 274 | 12.9 | 22.5 | 0.00 | 2.67 | 2.74 | 57 | 1018.0 |
| 20260830151808 | 13 | 266 | 16.1 | 24.1 | 0.00 | 2.67 | 2.74 | 56 | 1018.0 |
| 20260830150808 | 13 | 268 | 17.7 | 25.7 | 0.00 | 2.67 | 2.74 | 54 | 1018.1 |
| 20260830145808 | 13 | 266 | 19.3 | 27.4 | 0.00 | 2.67 | 2.74 | 54 | 1018.2 |
| 20260830144808 | 13 | 252 | 17.7 | 27.4 | 0.00 | 2.67 | 2.74 | 55 | 1018.2 |
| 20260830143808 | 13 | 256 | 19.3 | 30.6 | 0.00 | 2.67 | 2.74 | 54 | 1018.2 |
| 20260830142808 | 13 | 255 | 19.3 | 29.0 | 0.00 | 2.67 | 2.74 | 56 | 1018.1 |
| 20260830141809 | 13 | 252 | 19.3 | 30.6 | 0.00 | 2.67 | 2.74 | 54 | 1018.1 |
| 20260830140810 | 13 | 242 | 17.7 | 25.7 | 0.00 | 2.67 | 2.74 | 55 | 1018.0 |
| 20260830135808 | 13 | 238 | 11.3 | 29.0 | 0.00 | 2.67 | 2.74 | 58 | 1017.9 |
| 20260830134808 | 13 | 231 | 16.1 | 25.7 | 0.00 | 2.67 | 2.74 | 57 | 1017.8 |
| 20260830133809 | 12 | 238 | 17.7 | 24.1 | 0.00 | 2.67 | 2.74 | 63 | 1017.7 |
| 20260830132808 | 12 | 229 | 16.1 | 27.4 | 0.00 | 2.67 | 2.74 | 59 | 1017.6 |
| 20260830131808 | 12 | 223 | 19.3 | 29.0 | 0.00 | 2.67 | 2.74 | 58 | 1017.5 |
| 20260830130808 | 12 | 229 | 14.5 | 45.1 | 0.00 | 2.67 | 2.74 | 60 | 1017.5 |
| 20260830125811 | 15 | 232 | 14.5 | 24.1 | 0.00 | 2.67 | 2.74 | 45 | 1017.4 |